Terug naar catalogus

TIANHUI 6B

ActiefWetenschapSSO
NORAD 55839·PAYLOAD·🇨🇳 China

Gelanceerd Mar 9, 2023 vanaf Taiyuan Satellite Launch Center

Loading…

Volgende Passages (komende 24 uur)

TLE

VersSource: Space-Track

Epoch: Sep 14, 2026, 14:44 UTC

1 55839U 23030D   26257.61429404 -.00000116  00000-0 -48007-4 0  9993
2 55839  99.0124 264.7476 0002615 144.9313 215.2025 14.01326683179910

Volg TIANHUI 6B in realtime met AllMySat

Download on the App Store